Location: Piotrkow Trybunalski
(51.4000°N, 19.6830°E)
Time: 07:47:44
(UTC+02:00)

STRAND 1 - Pass Details

Date: 26 February 2024
Orbit: 764 x 779 km, 98.4° (Epoch: 24 April)

Event Time Altitude Azimuth Distance (km) Brightness Sun altitude
Rises 20:26:00 0° 3° (N) 3,273 ? -29.8°
Reaches altitude 10° 20:29:27 10° 339° (NNW) 2,338 ? -30.3°
Maximum altitude 20:31:57 14° 310° (NW) 2,074 ? -30.6°
Drops below altitude 10° 20:34:27 10° 280° (W) 2,326 ? -31.0°
Sets 20:37:53 0° 256° (WSW) 3,246 ? -31.5°
